Location: Bijele Vode
(45.2833°N, 16.2000°E)
Time: 13:28:04
(UTC+00:00)

Cosmos 1125 Rocket - Pass Details

Date: 18 September 2020
Orbit: 758 x 779 km, 74.0° (Epoch: 30 October)

Event Time Altitude Azimuth Distance (km) Brightness Sun altitude
Rises 18:56:25 0° 189° (S) 3,241 6.6 -20.7°
Reaches altitude 10° 18:58:48 10° 186° (S) 2,320 5.8 -21.0°
Maximum altitude 19:04:00 63° 107° (ESE) 872 3.4 -21.9°
Drops below altitude 10° 19:09:15 10° 27° (NNE) 2,342 6.0 -22.7°
Sets 19:11:40 0° 25° (NNE) 3,274 6.8 -23.1°
